Theta_e
305 307 305 304 302 303 302 305 302 305 306 313 317 320 323 328 329 327 328 331 336 337 342 346 348 351 351 350 354 354 354 353 350 349 347 343 339 336 334 332 333 334 335 337
301 304 305 302 304 304 304 304 305 306 308 317 321 321 321 324 326 327 328 330 334 338 340 342 345 345 346 349 351 354 354 351 351 348 343 342 341 340 337 333 335 335 334 335
300 304 302 299 303 304 305 307 307 304 311 319 316 318 322 327 327 328 331 331 332 336 341 342 342 344 344 347 350 352 352 352 350 347 342 342 341 339 337 331 331 336 336 337
301 300 292 303 309 308 306 308 310 310 313 318 318 322 324 327 328 329 332 333 334 333 336 340 341 342 346 347 349 351 352 351 349 345 343 342 342 339 338 338 330 333 337 337
299 300 303 305 310 305 304 306 312 311 315 317 317 319 321 323 324 328 329 331 333 334 336 339 339 342 344 345 348 350 350 350 347 345 343 341 340 336 335 337 336 339 337 337
302 295 295 307 313 317 315 303 317 318 319 319 318 312 319 322 324 326 329 333 335 335 338 340 342 344 345 346 347 348 349 349 348 346 344 341 337 336 339 340 338 336 338 339
304 300 304 311 314 317 304 308 317 319 320 319 318 319 322 325 328 331 331 332 336 338 339 343 345 347 346 346 346 350 349 349 346 344 342 337 337 338 340 338 336 333 336 338
305 301 300 315 314 310 315 317 318 320 320 321 324 326 328 330 331 333 334 335 337 339 339 342 345 347 345 344 344 345 345 344 342 342 342 339 337 338 338 339 337 334 334 334
308 306 315 317 315 318 320 320 321 322 322 324 322 324 327 328 330 331 334 334 337 337 338 340 343 346 341 337 342 343 341 339 340 342 342 342 339 339 337 337 331 332 330 325
310 313 314 315 317 318 318 317 318 320 321 322 322 327 330 332 333 333 333 333 335 333 331 331 337 340 337 338 341 341 340 339 340 340 339 339 337 336 332 330 329 329 329 329
310 312 315 316 315 315 315 316 316 317 318 318 317 319 325 330 332 333 334 334 335 334 333 330 334 335 339 339 340 338 338 337 339 339 337 326 319 324 330 331 324 329 330 330
307 315 315 315 315 315 313 313 315 315 316 319 320 320 322 324 328 331 332 332 331 333 332 331 334 335 337 338 336 336 333 333 332 331 327 324 323 315 298 299 298 297 301 318
311 313 310 311 311 312 311 311 312 312 313 313 317 321 322 322 324 323 331 334 334 335 334 334 334 335 337 337 337 335 334 334 330 327 326 325 323 324 321 306 296 295 296 298
313 312 308 309 308 311 312 311 311 312 313 314 315 317 318 321 324 326 328 331 333 333 334 335 336 334 335 336 337 335 334 316 332 330 326 323 323 324 324 323 320 315 298 301
309 311 311 312 311 311 312 312 311 310 312 313 315 316 317 316 318 322 328 331 332 332 332 333 332 333 334 334 333 332 330 329 330 330 330 324 321 324 324 323 321 317 313 304
308 308 308 308 309 310 311 311 311 311 313 315 316 316 316 318 318 319 325 330 330 331 332 332 331 330 331 331 330 330 331 319 322 329 326 326 324 324 323 321 319 317 315 316
307 306 308 308 309 311 311 312 313 313 314 315 316 318 319 318 318 319 323 329 332 331 331 330 330 331 331 332 331 332 330 330 321 329 327 326 325 324 323 321 319 318 318 316
312 312 313 313 311 311 312 315 316 316 316 317 320 321 321 321 321 322 325 324 329 329 329 329 328 328 328 330 330 327 327 326 327 327 327 324 324 324 323 322 321 319 319 313
313 313 313 313 314 314 314 314 316 317 317 318 319 319 320 318 319 323 325 325 326 327 324 326 319 324 327 326 325 326 325 325 326 327 327 318 322 324 322 321 320 320 320 317
312 313 313 313 315 315 315 316 318 317 316 317 319 320 319 320 319 323 324 323 323 323 325 325 328 328 328 326 322 327 326 326 325 324 323 324 323 322 321 311 319 319 318 316
310 311 311 312 313 315 315 316 317 317 318 320 319 318 318 319 320 321 321 319 323 325 326 322 326 325 323 321 321 324 325 324 324 323 322 322 320 320 319 320 319 319 318 317
310 310 310 311 311 313 315 316 317 319 319 319 319 320 320 320 321 322 321 321 323 312 322 324 323 317 316 314 316 318 321 322 321 320 319 320 319 318 318 318 317 318 317 316
311 311 311 311 311 311 314 316 317 318 318 318 318 317 317 316 318 319 318 321 324 316 323 323 314 311 308 316 314 312 311 312 312 313 314 315 316 316 316 316 316 316 315 315
312 313 313 312 312 312 312 314 316 316 316 317 317 319 318 315 317 319 323 314 309 312 320 319 315 309 306 316 314 313 313 313 312 310 309 299 310 312 313 314 314 314 314 311
312 312 312 312 311 310 312 314 313 314 315 315 316 317 318 319 317 317 318 320 309 314 320 308 308 308 316 316 315 314 313 311 310 309 308 307 307 309 310 310 310 310 311 311
311 311 311 312 311 311 311 312 311 311 311 312 314 315 315 317 317 317 319 312 319 313 319 319 319 317 317 316 315 313 312 311 309 309 306 307 306 306 307 307 307 307 307 307
310 303 311 311 310 310 309 310 310 308 308 309 309 312 311 312 312 311 309 316 317 317 318 318 318 314 316 316 314 314 313 312 306 311 310 308 307 305 305 306 307 307 306 306
Wind_Speed
24 23 24 24 22 22 18 22 20 18 20 16 15 17 18 16 10 9 13 16 18 18 17 16 16 15 15 15 14 16 16 17 17 13 12 13 14 14 14 12 13 15 11 9
19 22 22 27 26 24 25 26 20 22 13 11 13 11 12 14 13 14 16 19 18 17 16 17 17 15 14 15 16 15 15 16 14 14 16 16 17 16 14 11 6 12 13 11
9 14 17 21 25 24 19 21 21 21 15 10 12 15 14 14 15 16 16 17 17 18 16 14 15 13 14 13 13 14 14 13 14 15 16 17 18 16 15 13 16 17 16 12
9 3 11 17 21 26 25 21 19 17 13 13 13 14 9 9 14 15 13 12 11 11 12 11 10 11 10 11 13 13 12 12 13 16 17 17 18 17 14 14 16 16 16 12
4 8 10 4 6 12 20 24 17 19 17 12 7 4 5 5 7 9 8 7 8 9 8 9 11 11 12 12 10 10 10 11 13 15 15 17 18 16 11 11 12 13 10 9
2 6 6 8 12 9 4 15 14 13 12 9 10 9 3 1 5 9 10 9 12 11 11 10 8 10 11 10 10 10 12 13 14 15 16 16 13 11 10 11 10 8 9 9
3 7 2 12 19 6 11 4 5 8 9 10 7 2 8 10 12 13 14 15 13 12 11 9 8 9 9 9 10 11 11 11 13 14 12 13 12 9 10 11 11 12 13 12
2 6 6 21 10 6 8 3 7 13 21 22 16 15 17 16 16 16 16 16 14 14 12 8 8 8 8 7 7 9 11 13 11 13 12 12 13 10 11 12 13 11 9 8
6 4 8 10 6 7 0 11 13 16 19 21 19 15 14 14 13 13 13 12 10 12 10 8 8 7 9 10 11 12 11 11 12 14 13 14 14 14 10 11 6 5 6 5
6 5 5 8 7 8 9 13 12 13 14 19 18 16 13 13 12 12 9 10 9 11 8 6 4 6 10 12 10 12 13 12 12 13 13 12 9 9 8 8 6 5 6 4
5 13 4 8 3 4 9 11 15 15 15 16 15 17 13 12 12 10 9 10 10 9 8 8 6 7 8 10 10 9 10 10 11 7 8 6 6 4 3 2 3 6 6 6
7 7 1 4 5 4 12 10 11 16 16 15 14 15 13 12 10 10 9 8 8 7 7 6 7 8 8 8 7 8 8 7 6 7 6 6 6 5 13 10 5 5 8 3
1 12 15 11 12 10 11 12 14 15 13 14 12 11 12 10 9 8 9 8 7 6 6 6 6 6 8 9 9 8 6 6 5 5 5 5 4 4 5 6 11 11 9 9
7 11 16 11 7 9 10 9 16 14 13 12 12 11 11 11 10 10 9 6 5 7 8 7 7 8 7 8 8 5 4 4 4 4 5 4 4 4 5 6 6 7 6 5
13 15 11 8 11 13 9 8 13 11 9 8 9 9 8 9 9 7 8 5 3 5 7 6 6 6 5 5 4 3 4 3 2 2 2 4 5 6 5 5 6 7 7 5
13 14 13 14 11 12 12 12 13 11 9 9 12 11 10 9 9 9 8 5 3 1 4 5 5 4 4 4 3 2 2 3 1 3 4 5 5 6 5 5 6 6 6 6
10 8 6 7 8 7 10 10 8 6 7 9 8 8 8 9 8 8 7 6 3 1 4 4 4 4 5 5 4 0 3 3 1 2 4 4 4 5 6 6 6 6 6 6
6 6 6 7 7 7 8 8 8 8 8 7 6 7 9 9 8 8 7 5 4 5 5 6 5 5 5 5 4 3 3 3 3 3 4 5 5 4 5 5 5 6 6 7
8 8 9 9 7 8 8 9 9 9 10 10 10 10 9 9 7 6 7 7 6 5 6 6 6 5 4 3 4 3 4 4 3 3 3 5 4 4 5 5 5 5 6 7
9 8 10 11 11 10 9 9 9 9 9 9 9 9 10 10 8 7 6 7 6 4 4 5 3 4 4 6 4 3 3 4 4 4 4 4 5 5 4 3 4 5 5 5
10 11 12 11 9 8 8 8 9 9 7 8 7 7 7 7 7 7 7 4 5 5 5 5 5 4 3 3 3 2 2 2 3 3 4 4 5 5 6 6 6 5 5 5
9 10 10 9 9 8 8 7 7 7 8 8 8 7 8 8 7 5 4 4 4 3 3 4 5 4 5 3 3 2 2 2 2 2 2 3 4 5 5 5 5 5 5 5
6 6 6 7 7 5 5 6 7 7 7 8 8 8 7 5 4 3 3 4 1 3 2 4 6 6 6 3 3 3 3 3 2 2 3 4 5 5 6 6 6 6 6 6
6 5 4 5 5 3 3 5 6 5 5 5 6 5 6 6 3 3 2 1 2 3 1 4 6 8 7 3 3 3 3 2 2 3 4 3 5 5 6 6 6 7 6 6
4 4 3 4 4 4 3 2 4 3 4 3 3 3 4 2 3 4 3 3 3 4 3 6 6 8 7 5 5 4 4 4 3 4 4 4 4 4 3 3 3 4 5 6
4 3 4 4 3 2 2 2 3 3 4 4 4 2 4 3 3 4 3 3 3 2 5 4 5 6 7 7 7 7 6 5 5 5 4 4 5 5 4 4 5 5 5 6
4 5 4 2 2 3 3 3 4 4 4 4 6 4 5 5 5 5 5 6 6 6 6 5 5 6 8 8 9 9 8 8 7 7 6 6 7 7 7 7 6 6 6 5
Wind_Direction
233 239 211 215 224 220 218 233 228 227 220 218 225 232 233 229 244 215 202 195 197 196 200 198 201 205 209 212 207 208 207 208 212 201 191 165 157 149 144 162 131 235 231 217
246 234 223 220 219 224 221 226 235 245 222 218 232 238 241 231 220 208 205 207 202 199 196 199 200 201 202 206 207 203 205 210 205 190 176 175 167 166 164 163 166 233 244 237
290 260 231 236 226 219 219 229 212 222 224 214 224 225 231 233 217 217 213 205 202 201 193 191 195 191 197 198 198 201 206 203 195 185 183 179 174 173 174 172 186 209 238 232
285 274 216 236 229 227 223 219 214 240 247 227 232 242 249 232 231 222 225 217 208 193 185 187 189 191 185 186 192 194 197 195 189 187 188 181 181 176 181 201 203 203 218 214
263 250 275 251 189 215 210 233 225 229 234 237 212 158 213 243 221 236 191 173 186 185 174 163 167 170 169 177 176 181 190 190 189 195 190 187 188 179 178 194 216 217 210 205
245 251 252 39 341 346 312 229 188 204 219 203 152 208 161 306 145 128 120 133 126 123 124 132 134 145 155 149 157 180 187 187 189 189 189 191 188 180 176 205 207 184 185 209
356 274 256 4 334 295 198 181 164 201 165 133 149 28 104 106 94 89 99 108 106 104 101 103 120 126 123 145 169 176 173 179 180 179 185 175 175 179 189 195 185 186 185 196
116 292 244 357 333 293 354 10 126 134 114 103 108 106 101 94 89 87 89 93 96 89 77 76 93 113 127 151 144 158 154 164 169 172 171 162 167 167 181 192 194 186 189 195
132 265 325 348 307 306 351 73 80 88 99 107 98 89 86 89 79 67 69 76 66 91 107 106 115 129 143 153 160 158 146 169 171 182 181 174 172 176 176 199 195 212 183 187
125 166 7 341 20 32 63 70 71 76 82 92 100 93 83 82 84 84 81 86 100 99 95 91 104 139 154 144 159 142 159 174 173 182 177 175 165 176 170 179 186 208 216 172
110 141 189 242 172 79 69 74 80 72 66 76 83 87 83 76 72 77 75 70 72 77 87 83 96 105 134 139 166 160 160 168 173 175 174 109 68 68 165 121 276 206 195 193
159 163 112 111 128 107 86 68 67 81 69 50 65 80 90 83 76 70 69 65 70 87 107 116 108 120 132 137 157 150 165 175 164 149 144 145 137 116 54 40 35 7 34 97
172 118 111 89 79 92 97 97 78 71 78 77 48 53 59 64 48 75 79 84 79 81 99 134 141 156 154 150 155 165 172 170 154 148 154 155 145 149 144 89 71 54 78 92
84 115 76 75 90 85 80 71 83 67 50 62 61 52 56 56 48 40 43 51 79 129 140 156 155 150 157 154 148 161 145 81 157 161 142 148 142 174 164 160 152 138 59 77
62 71 82 95 70 62 66 64 65 65 54 46 66 54 44 37 41 36 19 21 66 117 139 148 136 120 142 128 122 119 122 124 162 154 161 162 176 183 175 167 160 150 140 135
66 63 46 39 34 47 38 48 52 42 31 25 28 22 16 359 6 6 10 355 284 20 144 139 114 113 134 115 98 74 36 62 291 174 155 165 170 168 171 172 165 162 173 169
65 70 71 74 64 61 50 43 47 37 32 30 10 351 348 351 339 354 1 348 332 92 147 132 105 96 137 141 146 59 228 170 91 169 175 169 170 164 170 177 183 186 185 172
90 102 93 80 69 65 62 55 51 50 43 17 9 13 15 8 357 355 0 12 57 86 80 83 97 100 106 125 146 184 154 143 169 191 168 165 154 167 184 190 191 187 178 149
77 76 75 66 61 68 55 42 38 38 36 32 29 31 28 28 22 35 42 46 61 87 83 106 122 134 123 149 200 205 208 191 160 155 167 127 171 187 202 181 188 197 186 174
88 85 76 69 58 46 42 35 35 45 41 40 43 47 44 39 38 40 43 53 40 34 70 105 129 117 133 139 190 174 167 183 179 156 163 177 188 185 178 197 203 199 199 198
51 51 48 46 45 46 42 32 29 36 30 36 40 33 25 20 21 21 36 60 51 70 88 115 102 107 103 113 186 141 166 183 199 182 169 194 171 195 201 206 201 209 203 205
29 33 32 29 30 32 26 22 23 26 29 30 30 30 24 22 17 28 35 2 49 21 87 109 112 101 112 159 100 105 116 122 130 154 190 222 220 211 213 215 222 222 225 234
15 14 15 18 12 2 3 23 27 20 16 14 16 18 16 358 347 355 64 57 100 111 110 119 109 134 145 153 132 127 120 133 147 202 215 215 221 231 235 227 229 229 232 233
6 12 8 352 350 3 24 20 9 9 3 358 356 351 347 352 35 53 343 237 202 190 194 127 163 172 218 178 184 187 200 222 268 288 290 281 260 246 241 244 234 240 243 236
354 327 318 343 6 25 354 328 316 314 326 314 320 319 310 318 310 346 344 16 128 213 213 162 192 188 225 223 225 229 237 242 274 294 303 284 259 227 216 221 242 254 250 249
325 329 337 312 307 353 2 319 339 10 354 347 325 334 332 324 306 291 294 288 272 230 250 234 227 212 231 234 231 237 243 242 233 242 278 264 244 250 238 244 252 242 248 257
344 342 329 340 45 355 358 354 328 348 350 332 315 345 333 327 328 311 304 284 271 269 270 269 252 224 244 238 225 229 230 236 238 243 241 246 238 237 241 241 244 241 247 243